Date String (YYYY-MM-DD hh:mm:ss) UTC,Instrument flags,Ambient pressure (hPa),Sample flow (lpm),Bypass flow (lpm),Sample temperature (°C),Ambient temperature (°C),ASC tube jacket temperature (°C),LED temperature (°C),Box temperature (°C),Sample RH (%),Span deviation,Mass concentration (μg/m³),Mass concentration (μg/m³),Mass concentration (μg/m³)
DateTimeUTC,F1_M11,P_M11,Q1_M11,Q2_M11,T1_M11,T2_M11,T3_M11,T4_M11,T5_M11,U1_M11,ZSPAN_M11,X0_M11,X2_M11,X1_M11
2022-03-12 06:00:00,,0826.6,4.99,0.00,22.4,21.5,00.0,31.5,24.1,07.8,0002.9,0008.75,0004.48,0003.90
2022-03-12 06:01:00,,0826.6,5.00,0.00,22.4,21.5,00.0,31.5,24.0,07.9,0002.6,0008.66,0004.46,0003.89
2022-03-12 06:02:00,,0826.6,5.00,0.00,22.4,21.8,00.0,31.5,24.1,07.8,0001.3,0008.73,0004.49,0003.89
2022-03-12 06:03:00,,0826.6,5.01,0.00,22.5,22.5,00.0,31.5,24.3,07.7,0000.0,0008.87,0004.50,0003.87
2022-03-12 06:04:00,,0826.5,4.99,0.00,22.6,23.1,00.0,31.6,24.6,07.6,0000.0,0008.87,0004.50,0003.85
2022-03-12 06:05:00,,0826.6,5.01,0.00,22.7,22.9,00.0,31.6,24.6,07.6,0000.0,0008.24,0004.48,0003.84
2022-03-12 06:06:00,,0826.5,5.00,0.00,22.7,22.7,00.0,31.6,24.6,07.6,0000.0,0008.05,0004.49,0003.84
2022-03-12 06:07:00,,0826.6,5.00,0.00,22.7,22.5,00.0,31.6,24.5,07.6,0000.0,0008.06,0004.49,0003.85
2022-03-12 06:08:00,,0826.5,5.00,0.00,22.7,22.3,00.0,31.6,24.4,07.6,0000.0,0008.11,0004.53,0003.86
2022-03-12 06:09:00,,0826.6,5.00,0.00,22.6,22.1,00.0,31.6,24.4,07.6,0000.0,0008.32,0004.54,0003.87
2022-03-12 06:10:00,,0826.5,4.99,0.00,22.6,22.0,00.0,31.6,24.3,07.7,0000.0,0008.33,0004.54,0003.89
2022-03-12 06:11:00,,0826.5,5.01,0.00,22.6,21.9,00.0,31.6,24.3,07.7,0000.0,0008.40,0004.59,0003.91
2022-03-12 06:12:00,,0826.5,5.00,0.00,22.6,21.8,00.0,31.6,24.3,07.7,0000.0,0008.59,0004.61,0003.92
2022-03-12 06:13:00,,0826.5,4.99,0.00,22.5,21.8,00.0,31.6,24.2,07.6,0000.0,0008.75,0004.62,0003.93
2022-03-12 06:14:00,,0826.5,5.01,0.00,22.5,21.7,00.0,31.5,24.2,07.6,0000.2,0008.67,0004.60,0003.93
2022-03-12 06:15:00,,0826.5,4.99,0.00,22.5,21.6,00.0,31.5,24.2,07.6,-000.2,0008.83,0004.63,0003.94
2022-03-12 06:16:00,,0826.5,5.01,0.00,22.4,21.6,00.0,31.5,24.1,07.6,-000.0,0008.95,0004.69,0003.96
2022-03-12 06:17:00,,0826.5,5.00,0.00,22.4,21.5,00.0,31.5,24.1,07.6,-000.5,0008.94,0004.65,0003.95
2022-03-12 06:18:00,,0826.5,4.99,0.00,22.4,21.5,00.0,31.5,24.1,07.6,0000.0,0009.05,0004.62,0003.95
2022-03-12 06:19:00,,0826.6,4.99,0.00,22.4,21.8,00.0,31.5,24.1,07.6,0000.0,0009.03,0004.58,0003.95
2022-03-12 06:20:00,,0826.6,5.00,0.00,22.5,22.6,00.0,31.5,24.4,07.5,0000.0,0008.89,0004.58,0003.96
2022-03-12 06:21:00,,0826.6,4.99,0.00,22.7,23.2,00.0,31.6,24.7,07.6,0000.0,0008.78,0004.55,0003.95
2022-03-12 06:22:00,,0826.6,5.01,0.00,22.8,23.2,00.0,31.6,24.8,07.5,0000.0,0008.64,0004.51,0003.93
2022-03-12 06:23:00,,0826.6,4.99,0.00,22.8,22.9,00.0,31.6,24.7,07.5,0000.0,0008.47,0004.48,0003.93
2022-03-12 06:24:00,,0826.6,5.00,0.00,22.8,22.6,00.0,31.6,24.6,07.5,0000.0,0008.92,0004.43,0003.92
2022-03-12 06:25:00,,0826.6,5.00,0.00,22.7,22.4,00.0,31.6,24.5,07.5,0000.0,0009.04,0004.42,0003.93
2022-03-12 06:26:00,,0826.6,4.99,0.00,22.7,22.2,00.0,31.6,24.5,07.5,0000.0,0008.87,0004.39,0003.95
2022-03-12 06:27:00,,0826.5,5.00,0.00,22.7,22.1,00.0,31.6,24.4,07.5,0000.0,0008.80,0004.37,0003.96
2022-03-12 06:28:00,,0826.5,5.01,0.00,22.7,22.0,00.0,31.6,24.4,07.5,0000.0,0008.76,0004.39,0003.97
2022-03-12 06:29:00,,0826.5,5.00,0.00,22.6,21.9,00.0,31.6,24.3,07.4,0000.0,0008.59,0004.41,0003.97
2022-03-12 06:30:00,,0826.5,4.99,0.00,22.6,21.8,00.0,31.6,24.3,07.5,0000.0,0008.98,0004.42,0003.96
2022-03-12 06:31:00,,0826.5,5.00,0.00,22.6,21.8,00.0,31.6,24.2,07.5,0000.0,0008.84,0004.37,0003.96
2022-03-12 06:32:00,,0826.5,5.02,0.00,22.5,21.7,00.0,31.6,24.2,07.5,0000.0,0008.84,0004.39,0003.97
2022-03-12 06:33:00,,0826.5,4.99,0.00,22.5,21.6,00.0,31.6,24.2,07.5,0000.0,0008.86,0004.41,0003.98
2022-03-12 06:34:00,,0826.4,5.00,0.00,22.5,21.6,00.0,31.5,24.1,07.5,0000.0,0008.84,0004.40,0003.99
2022-03-12 06:35:00,,0826.4,5.00,0.00,22.5,21.9,00.0,31.5,24.2,07.5,0000.0,0008.43,0004.44,0004.03
2022-03-12 06:36:00,,0826.4,4.99,0.00,22.6,22.6,00.0,31.6,24.4,07.4,0000.0,0008.35,0004.47,0004.05
2022-03-12 06:37:00,,0826.5,5.01,0.00,22.7,23.3,00.0,31.6,24.7,07.4,0000.0,0008.42,0004.48,0004.04
2022-03-12 06:38:00,,0826.5,4.99,0.00,22.8,23.1,00.0,31.6,24.7,07.3,0000.1,0008.42,0004.48,0004.04
2022-03-12 06:39:00,,0826.3,5.00,0.00,22.8,22.8,00.0,31.6,24.6,07.3,0002.8,0008.39,0004.49,0004.05
2022-03-12 06:40:00,,0826.3,5.00,0.00,22.8,22.5,00.0,31.6,24.5,07.4,0001.3,0008.34,0004.50,0004.07
2022-03-12 06:41:00,,0826.3,5.01,0.00,22.7,22.3,00.0,31.6,24.4,07.4,0000.0,0008.02,0004.52,0004.10
2022-03-12 06:42:00,,0826.4,5.00,0.00,22.7,22.2,00.0,31.6,24.4,07.3,0000.0,0008.26,0004.55,0004.12
2022-03-12 06:43:00,,0826.4,5.00,0.00,22.6,22.0,00.0,31.6,24.3,07.4,0000.0,0008.70,0004.56,0004.13
2022-03-12 06:44:00,,0826.3,4.99,0.00,22.6,21.9,00.0,31.6,24.2,07.4,0000.0,0008.91,0004.58,0004.15
2022-03-12 06:45:00,,0826.3,5.00,0.00,22.6,21.7,00.0,31.6,24.2,07.5,0000.0,0008.99,0004.60,0004.16
2022-03-12 06:46:00,,0826.2,5.00,0.00,22.5,21.7,00.0,31.6,24.1,07.5,0000.0,0008.96,0004.60,0004.16
2022-03-12 06:47:00,,0826.3,4.99,0.00,22.5,21.6,00.0,31.6,24.1,07.6,0000.0,0008.59,0004.60,0004.16
2022-03-12 06:48:00,,0826.3,5.02,0.00,22.5,21.7,00.0,31.6,24.1,07.5,0000.0,0008.68,0004.61,0004.18
2022-03-12 06:49:00,,0826.2,4.98,0.00,22.6,22.4,00.0,31.6,24.3,07.5,0000.0,0009.15,0004.65,0004.20
2022-03-12 06:50:00,,0826.3,5.01,0.00,22.7,23.1,00.0,31.6,24.6,07.5,0000.0,0009.26,0004.67,0004.21
2022-03-12 06:51:00,,0826.4,5.00,0.00,22.8,23.3,00.0,31.7,24.7,07.4,0000.0,0009.32,0004.68,0004.22
2022-03-12 06:52:00,,0826.3,5.00,0.00,22.8,23.0,00.0,31.7,24.6,07.4,0000.0,0009.43,0004.72,0004.22
2022-03-12 06:53:00,,0826.2,5.00,0.00,22.7,22.7,00.0,31.7,24.5,07.5,0000.0,0009.27,0004.77,0004.24
2022-03-12 06:54:00,,0826.1,5.00,0.00,22.7,22.4,00.0,31.7,24.4,07.5,0000.0,0009.01,0004.80,0004.26
2022-03-12 06:55:00,,0826.1,5.00,0.00,22.7,22.2,00.0,31.7,24.3,07.5,0000.0,0008.93,0004.84,0004.28
2022-03-12 06:56:00,,0826.2,4.99,0.00,22.6,22.0,00.0,31.6,24.2,07.5,0000.0,0009.18,0004.90,0004.29
2022-03-12 06:57:00,,0826.3,5.01,0.00,22.6,21.9,00.0,31.6,24.2,07.6,0000.0,0009.31,0004.93,0004.31
2022-03-12 06:58:00,,0826.3,4.99,0.00,22.5,21.7,00.0,31.6,24.1,07.6,0000.0,0009.35,0004.94,0004.33
2022-03-12 06:59:00,,0826.2,4.99,0.00,22.5,21.7,00.0,31.6,24.1,07.6,0000.0,0009.33,0004.96,0004.34
